Zurück zum Katalog

SL-12 DEB

AktivUNKNOWN
NORAD 21725·DEBRIS·🇷🇺 Russia

Gestartet Apr 24, 1987 von Baikonur Cosmodrome

Loading…

Nächste Überflüge (nächste 24 Stunden)

TLE

AktuellSource: Space-Track

Epoche: Sep 13, 2026, 20:01 UTC

1 21725U 87036N   26256.83411189  .00056659  00000-0  60848-1 0  9995
2 21725  64.7109 298.1900 0866270 187.8371 170.8321 12.69870323277772

Verfolge SL-12 DEB in Echtzeit mit AllMySat

Download on the App Store